DW8816 Weather Reports


Display with metric or nautical units.
time (UTC)temp
F
wind
direction
speed
MPH
gust
MPH
rain 1hr
in
rain 24hr
in
rain mn
in
humidity
%
barometer
mb
20181023032005 41 232 0.0 2.0 0.00 0.00 0.00 90 1032.3
20181023031006 41 264 1.0 3.0 0.00 0.00 0.00 91 1032.5
20181023030007 41 246 1.0 7.0 0.00 0.00 0.00 92 1032.1
20181023025005 40 0 0.0 6.0 0.00 0.00 0.00 91 1032.6
20181023024005 40 0 0.0 0.0 0.00 0.00 0.00 91 1032.9
20181023023006 41 0 0.0 0.0 0.00 0.00 0.00 91 1033.0
20181023022006 41 0 0.0 2.0 0.00 0.00 0.00 91 1033.3
20181023021006 41 102 1.0 2.0 0.00 0.00 0.00 91 1033.6
20181023020006 41 103 0.0 3.0 0.00 0.00 0.00 91 1033.4
20181023015006 41 0 0.0 0.0 0.00 0.00 0.00 91 1033.1
20181023014006 41 0 0.0 0.0 0.00 0.00 0.00 91 1033.2
20181023013007 41 0 0.0 0.0 0.00 0.00 0.00 91 1033.5
20181023012006 41 0 0.0 0.0 0.00 0.00 0.00 90 1033.5
20181023011005 41 0 0.0 0.0 0.00 0.00 0.00 90 1033.9
20181023010006 41 0 0.0 0.0 0.00 0.00 0.00 90 1034.0
20181023005006 41 0 0.0 0.0 0.00 0.00 0.00 89 1034.0
20181023004006 41 0 0.0 1.0 0.00 0.00 0.00 89 1034.0
20181023003006 41 0 0.0 2.0 0.00 0.00 0.00 89 1034.3
20181023002005 42 224 1.0 2.0 0.00 0.00 0.00 89 1034.4
20181023001009 42 262 0.0 4.0 0.00 0.00 0.00 89 1034.5
20181023000006 42 0 0.0 2.0 0.00 0.00 0.00 88 1034.7
20181022235006 42 281 0.0 1.0 0.00 0.00 0.00 88 1034.6
20181022234006 42 283 1.0 3.0 0.00 0.00 0.00 88 1035.0
20181022233007 42 0 0.0 3.0 0.00 0.00 0.00 89 1035.0
20181022232006 42 0 0.0 1.0 0.00 0.00 0.00 89 1035.1
20181022231006 42 0 0.0 3.0 0.00 0.00 0.00 89 1035.6
20181022230007 42 0 0.0 1.0 0.00 0.00 0.00 89 1035.5
20181022225006 42 284 1.0 2.0 0.00 0.00 0.00 88 1035.6
20181022224005 42 285 0.0 3.0 0.00 0.00 0.00 88 1035.7
20181022223006 42 0 0.0 0.0 0.00 0.00 0.00 89 1035.7
20181022222005 42 0 0.0 0.0 0.00 0.00 0.00 88 1035.8
20181022221005 42 0 0.0 0.0 0.00 0.00 0.00 88 1036.0
20181022220006 42 0 0.0 0.0 0.00 0.00 0.00 89 1036.1
20181022215006 42 0 0.0 0.0 0.00 0.00 0.00 88 1036.1
20181022214006 42 0 0.0 0.0 0.00 0.00 0.00 88 1036.1
20181022213007 42 0 0.0 0.0 0.00 0.00 0.00 87 1036.1
20181022212006 42 0 0.0 0.0 0.00 0.00 0.00 87 1036.0
20181022211006 42 0 0.0 0.0 0.00 0.00 0.00 87 1036.1
20181022210009 43 0 0.0 0.0 0.00 0.00 0.00 86 1036.4
20181022205005 43 0 0.0 0.0 0.00 0.00 0.00 86 1036.4
20181022204005 43 0 0.0 0.0 0.00 0.00 0.00 86 1036.6
20181022203006 43 0 0.0 0.0 0.00 0.00 0.00 85 1036.6
20181022202006 43 0 0.0 0.0 0.00 0.00 0.00 85 1036.6
20181022201005 43 0 0.0 0.0 0.00 0.00 0.00 85 1036.6
20181022200006 43 0 0.0 0.0 0.00 0.00 0.00 84 1036.5
20181022195005 44 0 0.0 0.0 0.00 0.00 0.00 84 1036.5
20181022194005 44 0 0.0 0.0 0.00 0.00 0.00 84 1036.5
20181022193007 44 0 0.0 0.0 0.00 0.00 0.00 83 1036.6
20181022192005 44 0 0.0 0.0 0.00 0.00 0.00 84 1036.5
20181022191005 45 0 0.0 0.0 0.00 0.00 0.00 82 1036.7
20181022190006 45 0 0.0 0.0 0.00 0.00 0.00 82 1036.5
20181022185006 45 0 0.0 0.0 0.00 0.00 0.00 81 1036.4
20181022184005 45 0 0.0 0.0 0.00 0.00 0.00 80 1036.2
20181022183007 46 0 0.0 0.0 0.00 0.00 0.00 79 1036.4
20181022182006 46 0 0.0 0.0 0.00 0.00 0.00 78 1036.7
20181022181005 46 0 0.0 0.0 0.00 0.00 0.00 79 1036.7
20181022180006 47 0 0.0 0.0 0.00 0.00 0.00 77 1036.7
20181022175006 47 0 0.0 0.0 0.00 0.00 0.00 76 1036.6
20181022174005 48 0 0.0 0.0 0.00 0.00 0.00 76 1036.7
20181022173006 48 0 0.0 0.0 0.00 0.00 0.00 75 1036.7
20181022172006 49 0 0.0 0.0 0.00 0.00 0.00 72 1036.5
20181022171005 50 0 0.0 1.0 0.00 0.00 0.00 72 1036.2
20181022170006 51 0 0.0 0.0 0.00 0.00 0.00 68 1036.0
20181022165006 51 0 0.0 0.0 0.00 0.00 0.00 66 1035.9
20181022164006 52 310 1.0 3.0 0.00 0.00 0.00 67 1035.9
20181022163007 52 327 2.0 5.0 0.00 0.00 0.00 63 1035.9
20181022162005 53 332 3.0 6.0 0.00 0.00 0.00 62 1035.9
20181022161005 53 335 3.0 8.0 0.00 0.00 0.00 61 1035.9
20181022160006 53 337 4.0 9.0 0.00 0.00 0.00 60 1036.0
20181022155005 54 340 3.0 8.0 0.00 0.00 0.00 59 1036.0
20181022154005 54 341 3.0 9.0 0.00 0.00 0.00 59 1036.0
20181022153006 54 342 4.0 9.0 0.00 0.00 0.00 58 1035.9
20181022152006 55 332 4.0 9.0 0.00 0.00 0.00 58 1035.9
20181022151005 55 340 4.0 13.0 0.00 0.00 0.00 57 1035.9
20181022150006 56 328 5.0 10.0 0.00 0.00 0.00 58 1036.0
20181022145006 56 335 6.0 12.0 0.00 0.00 0.00 58 1036.2
20181022144005 56 343 6.0 12.0 0.00 0.00 0.00 58 1036.4
20181022143006 57 337 6.0 14.0 0.00 0.00 0.00 58 1036.5
20181022142005 57 343 6.0 12.0 0.00 0.00 0.00 58 1036.6
20181022141005 57 342 5.0 12.0 0.00 0.00 0.00 58 1036.5
20181022140007 57 339 5.0 11.0 0.00 0.00 0.00 59 1036.2
20181022135005 57 340 4.0 11.0 0.00 0.00 0.00 57 1036.4
20181022134005 57 337 3.0 12.0 0.00 0.00 0.00 58 1036.3
20181022133006 56 7 4.0 8.0 0.00 0.00 0.00 59 1036.1
20181022132005 56 1 5.0 13.0 0.00 0.00 0.00 58 1036.4
20181022131006 56 334 4.0 15.0 0.00 0.00 0.00 59 1036.4
20181022130007 55 25 5.0 9.0 0.00 0.00 0.00 57 1036.5
20181022125006 56 346 6.0 12.0 0.00 0.00 0.00 57 1036.6
20181022124006 56 342 6.0 15.0 0.00 0.00 0.00 58 1036.7
20181022123006 55 339 6.0 14.0 0.00 0.00 0.00 60 1036.6
20181022122006 55 337 5.0 13.0 0.00 0.00 0.00 59 1036.5
20181022121005 55 3 5.0 12.0 0.00 0.00 0.00 60 1036.6
20181022120006 55 4 6.0 16.0 0.00 0.00 0.00 59 1036.6
20181022115005 55 345 6.0 15.0 0.00 0.00 0.00 59 1036.6
20181022114006 55 345 5.0 11.0 0.00 0.00 0.00 60 1036.5
20181022113007 54 355 6.0 14.0 0.00 0.00 0.00 60 1036.7
20181022112006 54 345 6.0 14.0 0.00 0.00 0.00 62 1036.7
20181022111006 53 343 6.0 15.0 0.00 0.00 0.00 64 1036.8
20181022110006 52 347 6.0 14.0 0.00 0.00 0.00 67 1036.9
20181022105006 51 346 7.0 15.0 0.00 0.00 0.00 68 1036.8
20181022104008 51 350 7.0 16.0 0.00 0.00 0.00 67 1036.6
20181022101005 51 10 5.0 14.0 0.00 0.00 0.00 67 1036.4
20181022100006 50 3 5.0 11.0 0.00 0.00 0.00 69 1036.4
20181022095005 50 351 6.0 14.0 0.00 0.00 0.00 69 1036.3
20181022094005 50 355 5.0 15.0 0.00 0.00 0.00 70 1036.2
20181022093006 50 7 5.0 13.0 0.00 0.00 0.00 71 1036.3
20181022092006 49 350 5.0 13.0 0.00 0.00 0.00 72 1036.4
20181022091005 49 356 5.0 10.0 0.00 0.00 0.00 73 1036.4
20181022090010 48 349 4.0 13.0 0.00 0.00 0.00 74 1036.4
20181022085005 48 357 4.0 11.0 0.00 0.00 0.00 74 1036.3
20181022084005 48 351 4.0 10.0 0.00 0.00 0.00 75 1036.3
20181022083006 47 344 4.0 13.0 0.00 0.00 0.00 75 1036.4
20181022082008 47 354 2.0 10.0 0.00 0.00 0.00 75 1036.2
20181022081005 47 341 3.0 9.0 0.00 0.00 0.00 75 1036.1
20181022080006 48 337 3.0 9.0 0.00 0.00 0.00 75 1035.9
20181022075005 46 343 3.0 8.0 0.00 0.00 0.00 77 1035.9
20181022074005 45 340 2.0 5.0 0.00 0.00 0.00 80 1035.8
20181022073008 43 356 2.0 6.0 0.00 0.00 0.00 82 1035.6
20181022072005 43 359 1.0 4.0 0.00 0.00 0.00 82 1035.5
20181022071006 43 344 2.0 4.0 0.00 0.00 0.00 81 1035.4
20181022070006 43 343 3.0 6.0 0.00 0.00 0.00 81 1035.1
20181022065006 43 344 3.0 9.0 0.00 0.00 0.00 81 1034.9
20181022064006 43 342 2.0 5.0 0.00 0.00 0.00 82 1034.8
20181022063007 43 345 3.0 6.0 0.00 0.00 0.00 82 1034.6
20181022062005 43 345 3.0 7.0 0.00 0.00 0.00 81 1034.5
20181022061006 43 346 3.0 9.0 0.00 0.00 0.00 82 1034.4
20181022060006 44 345 3.0 8.0 0.00 0.00 0.00 82 1034.1
20181022055006 44 340 3.0 8.0 0.00 0.00 0.00 83 1034.0
20181022054005 44 346 4.0 8.0 0.00 0.00 0.00 83 1034.1
20181022053007 44 340 4.0 9.0 0.00 0.00 0.00 84 1034.0
20181022052005 44 337 4.0 9.0 0.00 0.00 0.00 84 1034.0
20181022051005 44 341 4.0 11.0 0.00 0.00 0.00 84 1033.8
20181022050006 44 338 4.0 9.0 0.00 0.00 0.00 85 1033.7
20181022045005 45 340 4.0 9.0 0.00 0.00 0.00 84 1033.6
20181022044006 45 337 4.0 9.0 0.00 0.00 0.00 84 1033.6
20181022043006 45 333 4.0 10.0 0.00 0.00 0.00 83 1033.5
20181022042005 46 341 5.0 10.0 0.00 0.00 0.00 82 1033.4
20181022041005 46 342 4.0 11.0 0.00 0.00 0.00 81 1033.1
20181022040007 46 341 4.0 9.0 0.00 0.00 0.00 81 1033.1
20181022035006 46 347 3.0 9.0 0.00 0.00 0.00 80 1032.9
20181022034009 46 352 4.0 9.0 0.00 0.00 0.00 80 1032.9
20181022033006 47 350 4.0 11.0 0.00 0.00 0.00 80 1032.8